Location: Sungai Bunut
(2.6333°N, 113.7333°E)
Time: 15:09:21
(UTC+00:00)

Altair - Pass Details

Date: 06 December 2023
Orbit: 1501 x 1682 km, 47.2° (Epoch: 24 February)

Event Time Altitude Azimuth Distance (km) Brightness Sun altitude
Rises 07:13:04 0° 344° (NNW) 4,626 9.9 40.0°
Reaches altitude 10° 07:17:05 10° 359° (N) 3,640 9.3 39.2°
Maximum altitude 07:23:38 22° 46° (NE) 2,842 8.7 37.8°
Drops below altitude 10° 07:30:13 10° 93° (E) 3,675 9.2 36.4°
Sets 07:34:15 0° 107° (ESE) 4,681 9.7 35.5°
